Weather in Inzhavino

Russia / Tambov Oblast     52°19′14″N   42°29′17″E
temp.,
°C
wind,
m/s
gust,
m/s
humid.,
%
clouds,
%
prec.,
mm/h
press.,
hPa
HPBL,
m
13 august, sat
sat1300:00+21e33620 0.0 102144
03:00+19ene227039 0.0 102121
06:00+20ene2363100 0.0 102151
09:00+26e224190 0.0 1021524
12:00+31ese323188 0.0 10201413
15:00+32e222954 0.0 10192594
18:00+31ene233292 0.0 1018207
21:00+24ne2251100 0.1 101830
14 august, sun
sun1400:00+21e3670100 0.6 1019110
03:00+20ene336099 0.8 101834
06:00+20ene3565100 0.1 1018107
09:00+25e4645100 0.2 1018473
12:00+29ene443478 0.0 10171303
15:00+31ene542847 0.0 10162734
18:00+29ene663390 0.0 1016989
21:00+22ene410466 0.0 1017171
15 august, mon
mon1500:00+21e5105543 0.0 1017200
03:00+19e4116349 0.0 1018217
06:00+19e410605 0.0 1019235
09:00+26e683425 0.0 1019660
12:00+30e67295 0.0 10181848
15:00+31e65275 0.0 10182433
18:00+29e56271 0.0 10181697
21:00+23e613382 0.0 1019324
16 august, tue
tue1600:00+20e413440 0.0 1020259
03:00+18e513586 0.0 1021276
06:00+18ene514574 0.0 1020345
09:00+25e7103646 0.0 1020747
12:00+30e782830 0.0 10191938
15:00+32e7724100 0.0 10182586
18:00+29e6828100 0.0 1018981
21:00+24e51340100 0.0 1019309
17 august, wed
wed1700:00+22e6144262 0.0 1020356
03:00+19e51343100 0.0 1020282
06:00+19ene41143100 0.0 1020270
09:00+25ese5831100 0.0 1019501
12:00+29ese6725100 0.0 10191161
15:00+29e782491 0.0 10181384
18:00+28e582793 0.0 1017970
21:00+24e4103586 0.0 1018261